Regional Weather Roundup
Issued by NWS

Home | Current Version | Previous Version | Text Only | Print | Product List | Glossary Off
Versions: 1 2 3 4 5 6 7 8 9 10 11 12 13 14 15 16 17 18 19 20 21 22 23 24 25 26 27 28

000
ASUS45 KBOU 310207
RWRCO

WEATHER ROUNDUP FOR COLORADO
NATIONAL WEATHER SERVICE DENVER/BOULDER CO
800 PM MDT MON MAY 30 2016

NOTE: "FAIR" INDICATES FEW OR NO CLOUDS BELOW 12000 FEET WITH NO
SIGNIFICANT WEATHER AND/OR OBSTRUCTIONS TO VISIBILITY.

COZ001>005-013-030-031-310300-
...NORTHWEST COLORADO...

CITY           SKY/WX    TMP DP  RH WIND       PRES   REMARKS
CRAIG          CLOUDY    62  38  40 SW8       30.07R
HAYDEN         FAIR      59  36  41 W5        30.09S
MEEKER         FAIR      59  41  51 SE6       30.09R
MOUNT WERNER   NOT AVBL
STEAMBOAT SPGS FAIR      57  37  47 N3        30.12R
WALDEN         NOT AVBL
$$

COZ006>008-011-310300-
...WEST CENTRAL VALLEYS...

CITY           SKY/WX    TMP DP  RH WIND       PRES   REMARKS
GRAND JUNCTION FAIR      74  30  19 SE5       29.97S
MONTROSE       FAIR      65  35  33 S14       30.08R
EAGLE          FAIR      64  28  25 N3        30.13S
RIFLE          FAIR      64  38  38 SE5       30.04R
DELTA          FAIR      76  25  15 SW5       30.00S
NUCLA          FAIR      68  27  21 CALM      30.08S
$$

COZ017>023-064>068-310300-
...SOUTHWEST COLORADO...

CITY           SKY/WX    TMP DP  RH WIND       PRES   REMARKS
DURANGO        FAIR      67  21  17 NW12      30.04R
CORTEZ         FAIR      72  28  19 N13G23    30.01R
PAGOSA SPRINGS FAIR      67  11  11 W5        30.11S
TELLURIDE      FAIR      49  29  46 E6        30.28F
WOLF CREEK PAS FAIR      41  12  30 SW12G18   30.41R
$$

COZ009-010-012-014-032>034-037-058>063-310300-
...CENTRAL COLORADO...

CITY           SKY/WX    TMP DP  RH WIND       PRES   REMARKS
ASPEN          FAIR      49  37  63 SE16G24   30.20F
BUENA VISTA    FAIR      58  26  30 NW14G21   30.20R
COPPER MTN     NOT AVBL
BERTHOUD PASS  FAIR      32  23  69 MISG      30.38R
COTTONWOOD PAS FAIR      52  23  32 W13G21    30.30R
GUNNISON       FAIR      55  34  44 NE13      30.21S
KREMMLING      CLOUDY    50  37  62 CALM      30.19S
LEADVILLE      CLOUDY    41  31  67 CALM      30.34R
MONARCH PASS   CLOUDY    36  27  69 SW15      30.50S
SALIDA         FAIR      59  31  35 NW3       30.23R
SUNLIGHT       FAIR      46  23  39 CALM      30.37R
WILKERSON PASS MOCLDY    43  27  52 W5        30.39R
$$

COZ069>075-310300-
...SAN LUIS VALLEY/SANGRE DE CRISTO MOUNTAINS...

CITY           SKY/WX    TMP DP  RH WIND       PRES   REMARKS
ALAMOSA        FAIR      61  29  29 N21G28    30.11R
LA VETA PASS   CLOUDY    54  28  37 N5        30.27R
SAGUACHE       FAIR      54  32  43 NW14      30.17R
$$

COZ035-036-038>040-310300-
...NORTHERN COLORADO FRONT RANGE...

CITY           SKY/WX    TMP DP  RH WIND       PRES   REMARKS
DENVER INTL AP MOCLDY    58  46  64 NE7       30.02R
DMNS CITY PARK   N/A     65  32  30 N9G16     30.03S
AURORA         MOCLDY    60  43  53 W9        30.04S
FRONT RANGE AP MOCLDY    59  43  55 NW7       30.04R
ERIE MUNI ARPT FAIR      63  37  38 MISG      30.00F
BOULDER MUN AP MOCLDY    64  36  34 NW6       30.01S
CENTENNIAL     MOCLDY    59  41  51 S6        30.05S
BROOMFIELD     MOCLDY    64  36  34 W6        30.04F
FORT COLLINS   FAIR      36 N/A N/A S6        30.00F
LONGMONT       FAIR      67  37  33 CALM      30.02F
$$

COZ041-046-047-076>085-087-088-310300-
...PIKES PEAK/PALMER DIVIDE AND SOUTHERN FOOTHILLS...

CITY           SKY/WX    TMP DP  RH WIND       PRES   REMARKS
COLO. SPRINGS  MOCLDY    63  35  35 N13       30.06S
A. F. ACADEMY  FAIR      59  37  44 N14       30.11R
SCHRIEVER AFB  NOT AVBL
ELLICOTT       NOT AVBL
FALCON         MOCLDY    60  32  34 N9G20     30.11S
FORT CARSON    FAIR      63  40  42 N10       30.04R
LIMON          FAIR      55  48  77 N10       30.04R
MONUMENT HILL  CLOUDY    52  37  58 E5        30.16R
TRINIDAD       FAIR      73  27  18 S14       29.95F
$$

COZ042>045-048>051-090-091-310300-
...NORTHEAST COLORADO...

CITY           SKY/WX    TMP DP  RH WIND       PRES   REMARKS
GREELEY ARPT   FAIR      63  46  55 S5        29.98F
AKRON          FAIR      58  47  66 NW9       29.97F
BURLINGTON     FAIR      65  45  48 N12       29.94F
WRAY           FAIR      63  48  59 W6        29.89F
STERLING       FAIR      59  54  82 NW5       29.93R
HOLYOKE        FAIR      63  48  59 W12       29.89R
FORT MORGAN    FAIR      57  49  73 CALM      29.97F
$$

COZ086-089-092>099-310300-
...SOUTHEAST COLORADO...

CITY           SKY/WX    TMP DP  RH WIND       PRES   REMARKS
PUEBLO         FAIR      73  45  36 SW10      29.94R
LA JUNTA       FAIR      69  44  40 NE14      29.91R
LAMAR          FAIR      69  46  43 N16       29.88R
SPRINGFIELD      N/A     69  51  52 S8        29.89R
$$




USA.gov is the U.S. government's official web portal to all federal, state and local government web resources and services.